NGL2104 UWGG-UDYZ

Flight info

Callsign NGL2104
Flight time 3h 5m
Altitude 35000
Route OKSUD2S OKSUD T778 RUBEK DCT GUTAN/K0867F370 DCT BAGIR/K0861F360 DCT IPLED A921 KUFAN/N0467F360 DCT TAVRO DCT TIBLO
Aircraft B738/M-SDE2E3FGHIRWXY/LB1

Departure

Time 2026-04-21 09:08
Airport Nizhny Novgorod / Strigino International Airport (UWGG)

Arrival

Time 2026-04-21 12:13
Airport Zvartnots International Airport (UDYZ)
Time Latitude Longitude Altitude Speed Heading
2026-04-21 07:56 56.22123 43.78801 265 ft 0 kts 146°
2026-04-21 08:01 56.22124 43.78801 265 ft 0 kts 146°
2026-04-21 08:06 56.22124 43.78800 265 ft 0 kts 146°
2026-04-21 08:42 56.22124 43.78799 237 ft 0 kts 146°
2026-04-21 08:44 56.22125 43.78799 237 ft 0 kts 146°
2026-04-21 09:01 56.22121 43.78804 265 ft 4 kts 146°
2026-04-21 09:02 56.22085 43.78819 265 ft 7 kts 189°
2026-04-21 09:02 56.22040 43.78742 265 ft 10 kts 242°
2026-04-21 09:02 56.21991 43.78661 265 ft 11 kts 196°
2026-04-21 09:03 56.21793 43.78570 265 ft 16 kts 190°
2026-04-21 09:03 56.21687 43.78530 265 ft 15 kts 192°
2026-04-21 09:03 56.21586 43.78490 265 ft 15 kts 191°
2026-04-21 09:03 56.21498 43.78438 265 ft 13 kts 225°
2026-04-21 09:04 56.21488 43.78286 266 ft 10 kts 281°
2026-04-21 09:04 56.21490 43.78273 266 ft 0 kts 281°
2026-04-21 09:05 56.21492 43.78253 266 ft 4 kts 281°
2026-04-21 09:06 56.21500 43.78179 266 ft 8 kts 281°
2026-04-21 09:06 56.21527 43.78072 267 ft 11 kts 324°
2026-04-21 09:06 56.21575 43.78067 268 ft 5 kts 12°
2026-04-21 09:06 56.21587 43.78072 268 ft 3 kts 12°
2026-04-21 09:07 56.21779 43.78140 266 ft 64 kts 11°
2026-04-21 09:07 56.22425 43.78373 265 ft 125 kts 11°
2026-04-21 09:07 56.23469 43.78751 324 ft 173 kts
2026-04-21 09:07 56.24712 43.79143 744 ft 195 kts
2026-04-21 09:08 56.26070 43.79498 1400 ft 195 kts
2026-04-21 09:08 56.27354 43.79912 2359 ft 191 kts 12°
2026-04-21 09:08 56.28704 43.80477 2821 ft 206 kts 14°
2026-04-21 09:08 56.30143 43.81086 3275 ft 224 kts 14°
2026-04-21 09:09 56.31801 43.81749 3295 ft 262 kts 14°
2026-04-21 09:09 56.33689 43.82515 3536 ft 290 kts 13°
2026-04-21 09:09 56.35690 43.83223 4427 ft 291 kts 12°
2026-04-21 09:09 56.37672 43.83927 4984 ft 288 kts 16°
2026-04-21 09:10 56.39388 43.85525 5001 ft 271 kts 41°
2026-04-21 09:10 56.40511 43.88146 5023 ft 260 kts 62°
2026-04-21 09:10 56.41117 43.91151 5185 ft 251 kts 75°
2026-04-21 09:10 56.41211 43.94287 5503 ft 255 kts 95°
2026-04-21 09:11 56.40872 43.97446 6263 ft 257 kts 97°
2026-04-21 09:11 56.40508 44.00621 6959 ft 259 kts 97°
2026-04-21 09:11 56.40140 44.03787 7604 ft 263 kts 98°
2026-04-21 09:11 56.39763 44.07028 8297 ft 265 kts 98°
2026-04-21 09:12 56.39381 44.10309 8943 ft 269 kts 98°
2026-04-21 09:12 56.38990 44.13638 9636 ft 273 kts 98°
2026-04-21 09:12 56.38592 44.17041 10047 ft 285 kts 99°
2026-04-21 09:12 56.37844 44.20511 10171 ft 313 kts 122°
2026-04-21 09:13 56.36150 44.23193 10343 ft 340 kts 148°
2026-04-21 09:13 56.33981 44.25087 10737 ft 352 kts 152°
2026-04-21 09:13 56.31733 44.26910 11310 ft 356 kts 153°
2026-04-21 09:13 56.29464 44.28723 11980 ft 358 kts 153°
2026-04-21 09:14 56.27175 44.30558 12644 ft 361 kts 153°
2026-04-21 09:14 56.24873 44.32419 13293 ft 366 kts 153°
2026-04-21 09:14 56.22541 44.34315 13882 ft 370 kts 152°
2026-04-21 09:14 56.20188 44.36239 14491 ft 373 kts 152°
2026-04-21 09:15 56.17821 44.38178 14671 ft 374 kts 152°
2026-04-21 09:15 56.15450 44.40120 14668 ft 374 kts 152°
2026-04-21 09:15 56.13880 44.41406 14673 ft 374 kts 152°
2026-04-21 09:15 56.10695 44.44017 14892 ft 380 kts 152°
2026-04-21 09:16 56.08299 44.45978 15548 ft 381 kts 152°
2026-04-21 09:16 56.05891 44.47945 16272 ft 383 kts 152°
2026-04-21 09:16 56.03450 44.49937 16863 ft 387 kts 152°
2026-04-21 09:16 56.00988 44.51945 17461 ft 391 kts 152°
2026-04-21 09:17 55.99341 44.53285 17854 ft 394 kts 152°
2026-04-21 09:17 55.96804 44.55349 18418 ft 397 kts 152°
2026-04-21 09:17 55.94314 44.57369 18950 ft 400 kts 152°
2026-04-21 09:17 55.91742 44.59454 19465 ft 403 kts 152°
2026-04-21 09:18 55.89173 44.61534 19983 ft 407 kts 152°
2026-04-21 09:18 55.86581 44.63629 20496 ft 411 kts 151°
2026-04-21 09:18 55.83966 44.65740 21003 ft 414 kts 151°
2026-04-21 09:18 55.81329 44.67864 21484 ft 418 kts 151°
2026-04-21 09:19 55.78673 44.70002 21962 ft 421 kts 151°
2026-04-21 09:19 55.76021 44.72133 22416 ft 424 kts 150°
2026-04-21 09:19 55.73317 44.74302 22887 ft 428 kts 150°
2026-04-21 09:19 55.70593 44.76484 23367 ft 431 kts 150°
2026-04-21 09:20 55.67855 44.78672 23788 ft 432 kts 151°
2026-04-21 09:20 55.65105 44.80867 24187 ft 434 kts 151°
2026-04-21 09:20 55.62346 44.83068 24558 ft 437 kts 151°
2026-04-21 09:20 55.59567 44.85281 24920 ft 439 kts 151°
2026-04-21 09:21 55.56812 44.87626 25261 ft 438 kts 143°
2026-04-21 09:21 55.54472 44.90988 25600 ft 432 kts 131°
2026-04-21 09:21 55.52297 44.94657 25983 ft 434 kts 131°
2026-04-21 09:21 55.50104 44.98353 26307 ft 437 kts 132°
2026-04-21 09:22 55.48000 45.01869 26602 ft 440 kts 132°
2026-04-21 09:22 55.45757 45.05581 26902 ft 444 kts 133°
2026-04-21 09:22 55.43484 45.09308 27180 ft 448 kts 133°
2026-04-21 09:22 55.41191 45.13044 27518 ft 449 kts 133°
2026-04-21 09:23 55.38890 45.16778 27851 ft 451 kts 133°
2026-04-21 09:23 55.36603 45.20477 28145 ft 454 kts 134°
2026-04-21 09:23 55.34272 45.24243 28415 ft 456 kts 134°
2026-04-21 09:23 55.31926 45.28026 28705 ft 459 kts 134°
2026-04-21 09:24 55.29572 45.31817 28991 ft 461 kts 134°
2026-04-21 09:24 55.27204 45.35625 29278 ft 463 kts 134°
2026-04-21 09:24 55.24819 45.39455 29471 ft 467 kts 134°
2026-04-21 09:24 55.22415 45.43309 29656 ft 470 kts 134°
2026-04-21 09:25 55.19998 45.47176 29892 ft 471 kts 135°
2026-04-21 09:25 55.17570 45.51054 30127 ft 472 kts 135°
2026-04-21 09:25 55.15141 45.54927 30323 ft 474 kts 135°
2026-04-21 09:25 55.12698 45.58816 30523 ft 476 kts 135°
2026-04-21 09:26 55.10247 45.62710 30777 ft 476 kts 135°
2026-04-21 09:26 55.07801 45.66590 31074 ft 475 kts 136°
2026-04-21 09:26 55.05354 45.70466 31362 ft 475 kts 136°
2026-04-21 09:26 55.02904 45.74336 31533 ft 477 kts 136°
2026-04-21 09:27 55.00437 45.78229 31676 ft 479 kts 137°
2026-04-21 09:27 54.97977 45.82107 32057 ft 476 kts 136°
2026-04-21 09:27 54.95519 45.85977 32367 ft 474 kts 137°
2026-04-21 09:27 54.93069 45.89825 32547 ft 476 kts 137°
2026-04-21 09:28 54.90605 45.93688 32710 ft 477 kts 137°
2026-04-21 09:28 54.88136 45.97552 32961 ft 477 kts 137°
2026-04-21 09:28 54.85782 46.01232 33279 ft 475 kts 138°
2026-04-21 09:28 54.83334 46.05053 33581 ft 473 kts 139°
2026-04-21 09:29 54.80880 46.08876 33721 ft 475 kts 139°
2026-04-21 09:29 54.78440 46.12635 33844 ft 476 kts 141°
2026-04-21 09:29 54.75864 46.16339 34101 ft 473 kts 142°
2026-04-21 09:29 54.73329 46.19832 34321 ft 472 kts 142°
2026-04-21 09:30 54.70745 46.23337 34475 ft 472 kts 143°
2026-04-21 09:30 54.68159 46.26837 34574 ft 470 kts 143°
2026-04-21 09:30 54.63011 46.33850 34632 ft 473 kts 143°
2026-04-21 09:31 54.57844 46.40927 34644 ft 475 kts 143°
2026-04-21 09:31 54.52653 46.48013 34647 ft 476 kts 143°
2026-04-21 09:32 54.47452 46.55089 34655 ft 477 kts 143°
2026-04-21 09:32 54.42244 46.62163 34654 ft 477 kts 144°
2026-04-21 09:33 54.37064 46.69173 34654 ft 477 kts 143°
2026-04-21 09:33 54.31851 46.76199 34661 ft 477 kts 144°
2026-04-21 09:34 54.26763 46.83496 34654 ft 479 kts 134°
2026-04-21 09:34 54.22980 46.92869 34660 ft 482 kts 117°
2026-04-21 09:35 54.20545 47.03307 34671 ft 482 kts 112°
2026-04-21 09:35 54.18160 47.14019 34671 ft 482 kts 112°
2026-04-21 09:36 54.15732 47.24682 34667 ft 482 kts 113°
2026-04-21 09:36 54.13260 47.35319 34675 ft 482 kts 113°
2026-04-21 09:37 54.10771 47.45943 34666 ft 482 kts 114°
2026-04-21 09:37 54.08293 47.56470 34669 ft 482 kts 114°
2026-04-21 09:38 54.05770 47.67136 34679 ft 483 kts 113°
2026-04-21 09:38 54.03267 47.77670 34680 ft 483 kts 114°
2026-04-21 09:39 54.00738 47.88268 34681 ft 484 kts 114°
2026-04-21 09:39 53.98199 47.98855 34678 ft 484 kts 115°
2026-04-21 09:40 53.95700 48.09224 34693 ft 484 kts 115°
2026-04-21 09:40 53.93137 48.19810 34688 ft 484 kts 115°
2026-04-21 09:41 53.90567 48.30369 34697 ft 484 kts 115°
2026-04-21 09:41 53.87986 48.40923 34699 ft 484 kts 115°
2026-04-21 09:42 53.85399 48.51451 34689 ft 484 kts 115°
2026-04-21 09:42 53.82816 48.61915 34701 ft 484 kts 115°
2026-04-21 09:43 53.80215 48.72412 34703 ft 484 kts 115°
2026-04-21 09:43 53.77357 48.82675 34689 ft 479 kts 127°
2026-04-21 09:44 53.72863 48.90768 34700 ft 470 kts 147°
2026-04-21 09:44 53.67377 48.96670 34703 ft 467 kts 152°
2026-04-21 09:45 53.61957 49.02297 34718 ft 467 kts 152°
2026-04-21 09:45 53.56466 49.08058 34716 ft 468 kts 152°
2026-04-21 09:46 53.50949 49.13890 34717 ft 469 kts 152°
2026-04-21 09:46 53.45425 49.19728 34715 ft 469 kts 152°
2026-04-21 09:47 53.39903 49.25547 34725 ft 469 kts 152°
2026-04-21 09:47 53.34371 49.31356 34725 ft 469 kts 152°
2026-04-21 09:48 53.28843 49.37141 34740 ft 469 kts 152°
2026-04-21 09:48 53.23300 49.42923 34732 ft 468 kts 153°
2026-04-21 09:49 53.17817 49.48627 34739 ft 466 kts 153°
2026-04-21 09:49 53.12280 49.54368 34740 ft 465 kts 153°
2026-04-21 09:50 53.08636 49.58135 34740 ft 464 kts 153°
2026-04-21 09:50 53.01342 49.65656 34747 ft 462 kts 153°
2026-04-21 09:51 52.95904 49.71243 34742 ft 461 kts 154°
2026-04-21 09:51 52.90456 49.76824 34758 ft 460 kts 154°
2026-04-21 09:52 52.85023 49.82372 34771 ft 459 kts 154°
2026-04-21 09:52 52.79591 49.87903 34751 ft 458 kts 154°
2026-04-21 09:53 52.74176 49.93400 34769 ft 457 kts 154°
2026-04-21 09:53 52.68748 49.98892 34778 ft 457 kts 154°
2026-04-21 09:54 52.63454 50.04235 34781 ft 457 kts 154°
2026-04-21 09:54 52.58052 50.09670 34759 ft 458 kts 154°
2026-04-21 09:55 52.52617 50.15124 34782 ft 458 kts 154°
2026-04-21 09:55 52.47164 50.20580 34799 ft 459 kts 154°
2026-04-21 09:56 52.41696 50.26033 34799 ft 460 kts 154°
2026-04-21 09:56 52.36210 50.31489 34801 ft 461 kts 154°
2026-04-21 09:57 52.30722 50.36932 34801 ft 462 kts 155°
2026-04-21 09:57 52.25251 50.42342 34799 ft 462 kts 155°
2026-04-21 09:58 52.19737 50.47778 34809 ft 463 kts 155°
2026-04-21 09:58 52.14220 50.53202 34783 ft 463 kts 155°
2026-04-21 09:59 52.08698 50.58614 34811 ft 464 kts 155°
2026-04-21 09:59 52.03161 50.64025 34815 ft 464 kts 155°
2026-04-21 10:00 51.97622 50.69423 34821 ft 465 kts 155°
2026-04-21 10:00 51.92066 50.74821 34783 ft 466 kts 155°
2026-04-21 10:01 51.86548 50.80168 34820 ft 465 kts 155°
2026-04-21 10:01 51.80995 50.85533 34826 ft 465 kts 155°
2026-04-21 10:02 51.72657 50.93561 34831 ft 465 kts 155°
2026-04-21 10:03 51.66983 50.98383 34833 ft 453 kts 166°
2026-04-21 10:03 51.62121 51.00315 34844 ft 443 kts 176°
2026-04-21 10:04 51.56038 51.01912 34848 ft 442 kts 176°
2026-04-21 10:04 51.48993 51.03794 34839 ft 442 kts 176°
2026-04-21 10:05 51.43909 51.05184 34844 ft 442 kts 176°
2026-04-21 10:05 51.37863 51.06850 34845 ft 441 kts 176°
2026-04-21 10:06 51.31816 51.08515 34854 ft 440 kts 176°
2026-04-21 10:06 51.25780 51.10172 34861 ft 440 kts 176°
2026-04-21 10:07 51.19783 51.11813 34864 ft 440 kts 176°
2026-04-21 10:07 51.13747 51.13460 34867 ft 439 kts 176°
2026-04-21 10:08 51.07724 51.15099 34864 ft 439 kts 176°
2026-04-21 10:08 51.01701 51.16735 34868 ft 439 kts 176°
2026-04-21 10:09 50.95693 51.18361 34870 ft 439 kts 176°
2026-04-21 10:09 50.89678 51.19985 34835 ft 439 kts 176°
2026-04-21 10:10 50.83669 51.21604 34861 ft 438 kts 176°
2026-04-21 10:10 50.77675 51.23214 34875 ft 437 kts 176°
2026-04-21 10:11 50.71677 51.24820 34886 ft 437 kts 176°
2026-04-21 10:11 50.65685 51.26421 34882 ft 437 kts 176°
2026-04-21 10:12 50.59699 51.28017 34883 ft 435 kts 176°
2026-04-21 10:12 50.53721 51.29606 34874 ft 435 kts 176°
2026-04-21 10:13 50.47753 51.31188 34896 ft 435 kts 176°
2026-04-21 10:13 50.41776 51.32769 34901 ft 435 kts 176°
2026-04-21 10:14 50.35804 51.34344 34888 ft 435 kts 176°
2026-04-21 10:14 50.29833 51.35915 34904 ft 435 kts 176°
2026-04-21 10:15 50.23911 51.37469 34911 ft 435 kts 176°
2026-04-21 10:15 50.17936 51.39033 34902 ft 435 kts 176°
2026-04-21 10:16 50.11965 51.40592 34916 ft 435 kts 176°
2026-04-21 10:16 50.05995 51.42147 34910 ft 435 kts 176°
2026-04-21 10:17 50.00030 51.43698 34921 ft 435 kts 176°
2026-04-21 10:17 49.94081 51.45239 34924 ft 435 kts 176°
2026-04-21 10:18 49.88110 51.46782 34929 ft 435 kts 176°
2026-04-21 10:18 49.82139 51.48322 34926 ft 435 kts 176°
2026-04-21 10:19 49.76167 51.49858 34934 ft 435 kts 176°
2026-04-21 10:19 49.70193 51.51391 34935 ft 435 kts 176°
2026-04-21 10:20 49.64220 51.52920 34937 ft 435 kts 176°
2026-04-21 10:20 49.58245 51.54445 34909 ft 435 kts 176°
2026-04-21 10:21 49.52279 51.55965 34931 ft 435 kts 176°
2026-04-21 10:21 49.46314 51.57481 34943 ft 434 kts 176°
2026-04-21 10:22 49.40352 51.58992 34945 ft 434 kts 176°
2026-04-21 10:22 49.34389 51.60499 34960 ft 434 kts 176°
2026-04-21 10:23 49.28467 51.61993 34944 ft 434 kts 176°
2026-04-21 10:23 49.22505 51.63493 34954 ft 434 kts 176°
2026-04-21 10:24 49.16543 51.64989 34954 ft 434 kts 176°
2026-04-21 10:24 49.10577 51.66483 34953 ft 435 kts 176°
2026-04-21 10:25 49.04609 51.67797 34946 ft 429 kts 183°
2026-04-21 10:25 48.98750 51.66989 34953 ft 420 kts 198°
2026-04-21 10:26 48.93154 51.64557 34960 ft 419 kts 200°
2026-04-21 10:26 48.87553 51.62091 34962 ft 419 kts 200°
2026-04-21 10:27 48.81942 51.59656 34962 ft 420 kts 199°
2026-04-21 10:27 48.76319 51.57240 34936 ft 420 kts 199°
2026-04-21 10:28 48.70699 51.54839 34962 ft 420 kts 199°
2026-04-21 10:28 48.65071 51.52439 34957 ft 420 kts 199°
2026-04-21 10:29 48.59449 51.50048 34967 ft 420 kts 199°
2026-04-21 10:29 48.53816 51.47658 34966 ft 420 kts 199°
2026-04-21 10:30 48.48183 51.45273 34966 ft 421 kts 199°
2026-04-21 10:30 48.42551 51.42893 34955 ft 420 kts 199°
2026-04-21 10:31 48.36925 51.40523 34967 ft 419 kts 199°
2026-04-21 10:31 48.31309 51.38161 34976 ft 419 kts 199°
2026-04-21 10:32 48.25696 51.35806 34972 ft 419 kts 199°
2026-04-21 10:32 48.20084 51.33457 34976 ft 419 kts 199°
2026-04-21 10:33 48.14466 51.31110 34972 ft 419 kts 199°
2026-04-21 10:33 48.08891 51.28788 34965 ft 418 kts 199°
2026-04-21 10:34 48.03288 51.26458 34972 ft 418 kts 199°
2026-04-21 10:34 47.97693 51.24137 34981 ft 418 kts 199°
2026-04-21 10:35 47.92096 51.21820 34980 ft 418 kts 199°
2026-04-21 10:35 47.86492 51.19506 34982 ft 418 kts 198°
2026-04-21 10:36 47.80890 51.17198 34982 ft 418 kts 198°
2026-04-21 10:36 47.75283 51.14893 34982 ft 418 kts 199°
2026-04-21 10:37 47.69681 51.12595 34987 ft 417 kts 199°
2026-04-21 10:37 47.64078 51.10302 34984 ft 418 kts 199°
2026-04-21 10:38 47.58476 51.08014 34984 ft 418 kts 198°
2026-04-21 10:38 47.52871 51.05730 34986 ft 418 kts 198°
2026-04-21 10:39 47.47264 51.03451 34983 ft 418 kts 198°
2026-04-21 10:39 47.41659 51.01177 34976 ft 417 kts 199°
2026-04-21 10:40 47.36059 50.98911 34988 ft 417 kts 199°
2026-04-21 10:40 47.30457 50.96648 34989 ft 417 kts 198°
2026-04-21 10:41 47.24888 50.94404 34993 ft 418 kts 198°
2026-04-21 10:41 47.19282 50.92149 34989 ft 418 kts 198°
2026-04-21 10:42 47.13673 50.89899 34973 ft 418 kts 199°
2026-04-21 10:42 47.08065 50.87654 34983 ft 417 kts 198°
2026-04-21 10:43 47.02467 50.85418 34998 ft 417 kts 198°
2026-04-21 10:43 46.96874 50.83188 35000 ft 417 kts 198°
2026-04-21 10:44 46.91276 50.80961 34997 ft 417 kts 198°
2026-04-21 10:44 46.85682 50.78741 35004 ft 417 kts 198°
2026-04-21 10:45 46.80081 50.76523 35002 ft 417 kts 198°
2026-04-21 10:45 46.74477 50.74308 35007 ft 417 kts 198°
2026-04-21 10:46 46.68871 50.72098 35009 ft 417 kts 198°
2026-04-21 10:46 46.63267 50.69893 35009 ft 417 kts 198°
2026-04-21 10:47 46.57658 50.67691 35007 ft 418 kts 198°
2026-04-21 10:47 46.52051 50.65494 34995 ft 417 kts 198°
2026-04-21 10:48 46.46508 50.63327 35006 ft 415 kts 198°
2026-04-21 10:48 46.40941 50.61156 35011 ft 413 kts 198°
2026-04-21 10:49 46.35392 50.58995 35018 ft 413 kts 198°
2026-04-21 10:49 46.29848 50.56841 35019 ft 412 kts 198°
2026-04-21 10:50 46.25207 50.55041 35019 ft 412 kts 198°
2026-04-21 10:50 46.18776 50.52553 35011 ft 411 kts 198°
2026-04-21 10:51 46.13257 50.50423 35013 ft 410 kts 198°
2026-04-21 10:51 46.07744 50.48298 35018 ft 410 kts 198°
2026-04-21 10:52 46.02236 50.46180 35020 ft 410 kts 198°
2026-04-21 10:52 45.96753 50.44076 35023 ft 410 kts 198°
2026-04-21 10:53 45.92168 50.42321 35023 ft 410 kts 198°
2026-04-21 10:53 45.86652 50.40212 35016 ft 410 kts 198°
2026-04-21 10:54 45.81131 50.38106 35025 ft 410 kts 198°
2026-04-21 10:54 45.75608 50.36004 35019 ft 411 kts 198°
2026-04-21 10:55 45.70076 50.33902 35019 ft 411 kts 198°
2026-04-21 10:55 45.64544 50.31805 35019 ft 412 kts 198°
2026-04-21 10:56 45.59005 50.29710 35000 ft 412 kts 198°
2026-04-21 10:56 45.53469 50.27620 35015 ft 412 kts 197°
2026-04-21 10:57 45.47924 50.25530 35021 ft 412 kts 197°
2026-04-21 10:57 45.42373 50.23443 35016 ft 413 kts 197°
2026-04-21 10:58 45.36853 50.21371 35016 ft 413 kts 197°
2026-04-21 10:58 45.31297 50.19290 35016 ft 413 kts 197°
2026-04-21 10:59 45.25736 50.17212 35010 ft 413 kts 197°
2026-04-21 10:59 45.20176 50.15138 35018 ft 413 kts 197°
2026-04-21 11:00 45.14618 50.13069 35011 ft 413 kts 197°
2026-04-21 11:00 45.09056 50.11003 35014 ft 413 kts 197°
2026-04-21 11:01 45.03494 50.08941 35012 ft 414 kts 197°
2026-04-21 11:01 44.97931 50.06883 35001 ft 414 kts 197°
2026-04-21 11:02 44.89575 50.03799 35007 ft 414 kts 197°
2026-04-21 11:02 44.83999 50.01746 35016 ft 414 kts 197°
2026-04-21 11:03 44.78536 49.99738 35001 ft 414 kts 197°
2026-04-21 11:03 44.72956 49.97692 35011 ft 414 kts 197°
2026-04-21 11:04 44.67372 49.95649 35000 ft 415 kts 197°
2026-04-21 11:04 44.61784 49.93608 35004 ft 415 kts 197°
2026-04-21 11:05 44.56190 49.91569 35021 ft 416 kts 197°
2026-04-21 11:05 44.50587 49.89530 35004 ft 416 kts 196°
2026-04-21 11:06 44.44981 49.87495 35005 ft 416 kts 196°
2026-04-21 11:06 44.39373 49.85463 34997 ft 416 kts 197°
2026-04-21 11:07 44.33763 49.83435 35014 ft 417 kts 196°
2026-04-21 11:07 44.28143 49.81406 35011 ft 417 kts 196°
2026-04-21 11:08 44.22516 49.79379 35002 ft 418 kts 196°
2026-04-21 11:08 44.16886 49.77356 35013 ft 418 kts 196°
2026-04-21 11:09 44.11257 49.75336 34995 ft 417 kts 196°
2026-04-21 11:09 44.05622 49.73318 35011 ft 419 kts 196°
2026-04-21 11:10 43.99970 49.71298 35011 ft 420 kts 196°
2026-04-21 11:10 43.94303 49.69277 35011 ft 420 kts 196°
2026-04-21 11:11 43.88635 49.67260 35011 ft 421 kts 196°
2026-04-21 11:11 43.83002 49.65258 35010 ft 421 kts 196°
2026-04-21 11:12 43.77292 49.63234 35010 ft 420 kts 196°
2026-04-21 11:12 43.71667 49.61243 35013 ft 420 kts 196°
2026-04-21 11:13 43.65969 49.59230 35016 ft 420 kts 196°
2026-04-21 11:13 43.60343 49.57247 35023 ft 420 kts 196°
2026-04-21 11:14 43.54679 49.55253 35002 ft 420 kts 196°
2026-04-21 11:14 43.49018 49.53265 35012 ft 420 kts 196°
2026-04-21 11:15 43.43371 49.51194 35007 ft 419 kts 202°
2026-04-21 11:15 43.40824 49.49289 35031 ft 417 kts 216°
2026-04-21 11:15 43.38598 49.46696 34776 ft 423 kts 225°
2026-04-21 11:16 43.36804 49.43505 34549 ft 423 kts 237°
2026-04-21 11:16 43.35331 49.40017 34340 ft 422 kts 237°
2026-04-21 11:16 43.33876 49.36519 34105 ft 422 kts 237°
2026-04-21 11:16 43.32421 49.33026 33843 ft 421 kts 237°
2026-04-21 11:17 43.30960 49.29542 33569 ft 421 kts 237°
2026-04-21 11:17 43.29487 49.26057 33293 ft 422 kts 237°
2026-04-21 11:17 43.28008 49.22580 33036 ft 423 kts 237°
2026-04-21 11:17 43.26518 49.19090 32773 ft 425 kts 236°
2026-04-21 11:18 43.25018 49.15590 32517 ft 427 kts 236°
2026-04-21 11:18 43.23503 49.12063 32257 ft 430 kts 236°
2026-04-21 11:18 43.21977 49.08514 31997 ft 433 kts 236°
2026-04-21 11:18 43.20439 49.04942 31739 ft 436 kts 236°
2026-04-21 11:19 43.18895 49.01357 31491 ft 438 kts 236°
2026-04-21 11:19 43.17406 48.97906 31249 ft 440 kts 236°
2026-04-21 11:19 43.15844 48.94289 31012 ft 442 kts 236°
2026-04-21 11:19 43.14273 48.90654 30764 ft 444 kts 236°
2026-04-21 11:20 43.12698 48.87015 30518 ft 446 kts 236°
2026-04-21 11:20 43.11112 48.83356 30270 ft 447 kts 236°
2026-04-21 11:20 43.09522 48.79691 30031 ft 448 kts 236°
2026-04-21 11:20 43.07926 48.76020 29742 ft 449 kts 236°
2026-04-21 11:21 43.06327 48.72345 29454 ft 450 kts 236°
2026-04-21 11:21 43.04725 48.68666 29191 ft 451 kts 236°
2026-04-21 11:21 43.03120 48.64985 28911 ft 451 kts 237°
2026-04-21 11:21 43.01533 48.61350 28641 ft 451 kts 237°
2026-04-21 11:22 42.99929 48.57683 28364 ft 452 kts 237°
2026-04-21 11:22 42.98293 48.53946 28094 ft 452 kts 237°
2026-04-21 11:22 42.96701 48.50314 27829 ft 452 kts 237°
2026-04-21 11:22 42.95082 48.46625 27556 ft 453 kts 237°
2026-04-21 11:23 42.93460 48.42935 27301 ft 454 kts 237°
2026-04-21 11:23 42.91833 48.39237 27053 ft 455 kts 237°
2026-04-21 11:23 42.90203 48.35537 26792 ft 456 kts 237°
2026-04-21 11:23 42.88567 48.31829 26536 ft 457 kts 237°
2026-04-21 11:24 42.86925 48.28112 26287 ft 458 kts 237°
2026-04-21 11:24 42.85280 48.24393 26032 ft 459 kts 237°
2026-04-21 11:24 42.83627 48.20657 25837 ft 459 kts 237°
2026-04-21 11:24 42.81979 48.16941 25900 ft 458 kts 237°
2026-04-21 11:25 42.80324 48.13212 25898 ft 461 kts 238°
2026-04-21 11:25 42.78663 48.09475 25899 ft 461 kts 238°
2026-04-21 11:25 42.77002 48.05741 25903 ft 461 kts 238°
2026-04-21 11:25 42.75341 48.02013 25907 ft 461 kts 238°
2026-04-21 11:26 42.73745 47.98434 25904 ft 460 kts 238°
2026-04-21 11:26 42.72085 47.94715 25901 ft 460 kts 237°
2026-04-21 11:26 42.70423 47.90998 25901 ft 460 kts 237°
2026-04-21 11:26 42.68762 47.87289 25908 ft 460 kts 238°
2026-04-21 11:27 42.67096 47.83580 25897 ft 460 kts 238°
2026-04-21 11:27 42.65429 47.79879 25909 ft 459 kts 238°
2026-04-21 11:27 42.63756 47.76175 25913 ft 459 kts 238°
2026-04-21 11:27 42.62087 47.72483 25912 ft 459 kts 238°
2026-04-21 11:28 42.60419 47.68795 25909 ft 459 kts 238°
2026-04-21 11:28 42.58745 47.65098 25912 ft 459 kts 237°
2026-04-21 11:28 42.57096 47.61459 25918 ft 459 kts 238°
2026-04-21 11:28 42.55399 47.57720 25899 ft 460 kts 238°
2026-04-21 11:29 42.53742 47.54074 25888 ft 460 kts 238°
2026-04-21 11:29 42.52060 47.50374 25881 ft 460 kts 238°
2026-04-21 11:29 42.50380 47.46685 25622 ft 460 kts 238°
2026-04-21 11:29 42.48705 47.43011 25376 ft 456 kts 238°
2026-04-21 11:30 42.47037 47.39356 25125 ft 455 kts 238°
2026-04-21 11:30 42.45372 47.35716 24884 ft 454 kts 238°
2026-04-21 11:30 42.43708 47.32080 24623 ft 453 kts 238°
2026-04-21 11:30 42.42046 47.28453 24390 ft 453 kts 238°
2026-04-21 11:31 42.40387 47.24836 24159 ft 452 kts 238°
2026-04-21 11:31 42.38745 47.21261 23913 ft 452 kts 238°
2026-04-21 11:31 42.37087 47.17655 23680 ft 451 kts 238°
2026-04-21 11:31 42.35431 47.14058 23428 ft 450 kts 238°
2026-04-21 11:32 42.33777 47.10471 23138 ft 449 kts 238°
2026-04-21 11:32 42.32125 47.06891 22870 ft 447 kts 238°
2026-04-21 11:32 42.30483 47.03338 22599 ft 445 kts 238°
2026-04-21 11:32 42.28879 46.99871 22329 ft 444 kts 238°
2026-04-21 11:33 42.27280 46.96418 22060 ft 442 kts 238°
2026-04-21 11:33 42.25654 46.92911 21797 ft 440 kts 238°
2026-04-21 11:33 42.24032 46.89418 21542 ft 438 kts 238°
2026-04-21 11:33 42.22416 46.85941 21277 ft 437 kts 238°
2026-04-21 11:34 42.20804 46.82476 21024 ft 436 kts 238°
2026-04-21 11:34 42.19193 46.79018 20767 ft 434 kts 238°
2026-04-21 11:34 42.17593 46.75587 20511 ft 431 kts 238°
2026-04-21 11:34 42.15995 46.72166 20265 ft 430 kts 238°
2026-04-21 11:35 42.14406 46.68767 20021 ft 428 kts 238°
2026-04-21 11:35 42.12820 46.65375 19783 ft 427 kts 238°
2026-04-21 11:35 42.11237 46.61996 19524 ft 426 kts 238°
2026-04-21 11:35 42.09677 46.58671 19319 ft 425 kts 239°
2026-04-21 11:36 42.08097 46.55305 19073 ft 425 kts 239°
2026-04-21 11:36 42.06519 46.51948 18828 ft 424 kts 239°
2026-04-21 11:36 42.04942 46.48598 18606 ft 423 kts 239°
2026-04-21 11:36 42.03371 46.45263 18380 ft 423 kts 239°
2026-04-21 11:37 42.01810 46.41951 18405 ft 414 kts 239°
2026-04-21 11:37 42.00303 46.38761 18439 ft 395 kts 239°
2026-04-21 11:37 41.98866 46.35721 18414 ft 377 kts 239°
2026-04-21 11:37 41.97490 46.32813 18415 ft 361 kts 239°
2026-04-21 11:38 41.96155 46.29992 18464 ft 357 kts 239°
2026-04-21 11:38 41.94820 46.27098 18337 ft 375 kts 241°
2026-04-21 11:38 41.93481 46.23960 18097 ft 399 kts 242°
2026-04-21 11:38 41.92102 46.20622 17851 ft 415 kts 242°
2026-04-21 11:39 41.90706 46.17223 17567 ft 416 kts 242°
2026-04-21 11:39 41.89308 46.13828 17289 ft 414 kts 242°
2026-04-21 11:39 41.87914 46.10462 17024 ft 412 kts 242°
2026-04-21 11:39 41.86519 46.07108 16803 ft 411 kts 242°
2026-04-21 11:40 41.85596 46.04898 16629 ft 411 kts 242°
2026-04-21 11:40 41.83741 46.00469 16230 ft 409 kts 242°
2026-04-21 11:40 41.82423 45.97338 16153 ft 403 kts 242°
2026-04-21 11:40 41.81042 45.94054 16199 ft 406 kts 242°
2026-04-21 11:41 41.80106 45.91828 16186 ft 402 kts 242°
2026-04-21 11:41 41.78763 45.88641 16180 ft 383 kts 242°
2026-04-21 11:41 41.77482 45.85608 16176 ft 364 kts 242°
2026-04-21 11:41 41.76266 45.82728 16179 ft 347 kts 242°
2026-04-21 11:42 41.75118 45.80014 16178 ft 334 kts 242°
2026-04-21 11:42 41.73963 45.77281 16200 ft 343 kts 242°
2026-04-21 11:42 41.72768 45.74447 16223 ft 355 kts 242°
2026-04-21 11:42 41.71540 45.71542 16214 ft 358 kts 242°
2026-04-21 11:43 41.70297 45.68608 16436 ft 369 kts 242°
2026-04-21 11:43 41.69032 45.65628 17218 ft 369 kts 242°
2026-04-21 11:43 41.67755 45.62625 17888 ft 371 kts 242°
2026-04-21 11:43 41.66465 45.59592 18194 ft 383 kts 242°
2026-04-21 11:44 41.65146 45.56492 18096 ft 381 kts 241°
2026-04-21 11:44 41.63844 45.53439 18056 ft 375 kts 241°
2026-04-21 11:44 41.62563 45.50439 18030 ft 372 kts 241°
2026-04-21 11:44 41.61275 45.47425 18018 ft 374 kts 241°
2026-04-21 11:45 41.59983 45.44403 18018 ft 374 kts 241°
2026-04-21 11:45 41.58693 45.41387 18016 ft 374 kts 241°
2026-04-21 11:45 41.57398 45.38364 18019 ft 374 kts 241°
2026-04-21 11:45 41.56102 45.35344 18003 ft 375 kts 241°
2026-04-21 11:46 41.54808 45.32328 18011 ft 375 kts 241°
2026-04-21 11:46 41.53511 45.29309 18024 ft 375 kts 241°
2026-04-21 11:46 41.52214 45.26294 18010 ft 375 kts 241°
2026-04-21 11:46 41.50932 45.23316 18007 ft 375 kts 241°
2026-04-21 11:47 41.49632 45.20301 17992 ft 375 kts 241°
2026-04-21 11:47 41.48331 45.17285 17999 ft 374 kts 241°
2026-04-21 11:47 41.47034 45.14281 17995 ft 374 kts 241°
2026-04-21 11:47 41.45737 45.11282 18010 ft 373 kts 241°
2026-04-21 11:48 41.44444 45.08292 18002 ft 373 kts 241°
2026-04-21 11:48 41.43144 45.05292 17994 ft 373 kts 241°
2026-04-21 11:48 41.41848 45.02301 18001 ft 372 kts 241°
2026-04-21 11:48 41.40609 44.99447 17992 ft 372 kts 241°
2026-04-21 11:49 41.39315 44.96468 18005 ft 372 kts 241°
2026-04-21 11:49 41.38019 44.93489 18002 ft 372 kts 241°
2026-04-21 11:49 41.36723 44.90510 17998 ft 372 kts 241°
2026-04-21 11:49 41.35425 44.87532 18007 ft 372 kts 241°
2026-04-21 11:50 41.34125 44.84549 18011 ft 372 kts 241°
2026-04-21 11:50 41.32824 44.81570 18013 ft 372 kts 241°
2026-04-21 11:50 41.31524 44.78594 18013 ft 373 kts 241°
2026-04-21 11:50 41.30219 44.75611 18007 ft 373 kts 241°
2026-04-21 11:51 41.28912 44.72625 18015 ft 373 kts 241°
2026-04-21 11:51 41.27606 44.69644 18021 ft 373 kts 241°
2026-04-21 11:51 41.26297 44.66659 17999 ft 374 kts 241°
2026-04-21 11:51 41.24989 44.63679 18022 ft 373 kts 241°
2026-04-21 11:52 41.23683 44.60706 18005 ft 373 kts 240°
2026-04-21 11:52 41.22374 44.57731 18027 ft 373 kts 240°
2026-04-21 11:52 41.21065 44.54760 18007 ft 372 kts 240°
2026-04-21 11:52 41.19612 44.51968 18014 ft 373 kts 230°
2026-04-21 11:53 41.17771 44.49534 18021 ft 375 kts 222°
2026-04-21 11:53 41.15649 44.47528 18034 ft 376 kts 212°
2026-04-21 11:53 41.13352 44.45768 18022 ft 377 kts 212°
2026-04-21 11:53 41.11103 44.44070 18028 ft 377 kts 211°
2026-04-21 11:54 41.08821 44.42347 18015 ft 378 kts 212°
2026-04-21 11:54 41.06531 44.40611 18017 ft 379 kts 212°
2026-04-21 11:54 41.04243 44.38862 18022 ft 379 kts 212°
2026-04-21 11:54 41.01953 44.37115 18010 ft 380 kts 212°
2026-04-21 11:55 40.99678 44.35379 18005 ft 379 kts 212°
2026-04-21 11:55 40.97392 44.33634 18012 ft 378 kts 212°
2026-04-21 11:55 40.95118 44.31897 17994 ft 377 kts 212°
2026-04-21 11:55 40.92844 44.30160 17978 ft 376 kts 212°
2026-04-21 11:56 40.90577 44.28429 17989 ft 376 kts 212°
2026-04-21 11:56 40.88311 44.26707 17967 ft 376 kts 212°
2026-04-21 11:56 40.86045 44.24979 17982 ft 375 kts 212°
2026-04-21 11:56 40.83775 44.23248 17972 ft 376 kts 212°
2026-04-21 11:57 40.81508 44.21519 17968 ft 377 kts 212°
2026-04-21 11:57 40.79239 44.19791 17975 ft 377 kts 212°
2026-04-21 11:57 40.76967 44.18060 17957 ft 377 kts 212°
2026-04-21 11:57 40.74691 44.16329 17965 ft 378 kts 212°
2026-04-21 11:58 40.72411 44.14600 17945 ft 379 kts 212°
2026-04-21 11:58 40.70159 44.12894 17954 ft 379 kts 212°
2026-04-21 11:58 40.67871 44.11162 17954 ft 379 kts 212°
2026-04-21 11:58 40.65588 44.09434 17959 ft 379 kts 212°
2026-04-21 11:59 40.63302 44.07704 17953 ft 379 kts 212°
2026-04-21 11:59 40.61017 44.05977 17956 ft 379 kts 212°
2026-04-21 11:59 40.58728 44.04248 17957 ft 379 kts 212°
2026-04-21 11:59 40.56442 44.02523 17953 ft 378 kts 212°
2026-04-21 12:00 40.54174 44.00813 17941 ft 375 kts 212°
2026-04-21 12:00 40.52016 43.99186 17953 ft 376 kts 212°
2026-04-21 12:00 40.49744 43.97474 17769 ft 375 kts 212°
2026-04-21 12:00 40.47493 43.95781 17483 ft 367 kts 212°
2026-04-21 12:01 40.45302 43.94136 17214 ft 358 kts 213°
2026-04-21 12:01 40.43184 43.92547 17196 ft 342 kts 213°
2026-04-21 12:01 40.41181 43.90997 17160 ft 326 kts 219°
2026-04-21 12:01 40.39677 43.88905 17117 ft 309 kts 240°
2026-04-21 12:02 40.38805 43.86350 17121 ft 307 kts 255°
2026-04-21 12:02 40.38495 43.80777 16861 ft 309 kts 266°
2026-04-21 12:02 40.37964 43.78103 16576 ft 308 kts 243°
2026-04-21 12:03 40.36671 43.75896 16185 ft 307 kts 222°
2026-04-21 12:03 40.34817 43.74516 15686 ft 309 kts 200°
2026-04-21 12:03 40.32688 43.74092 15183 ft 314 kts 180°
2026-04-21 12:03 40.30515 43.74418 14572 ft 316 kts 174°
2026-04-21 12:04 40.28346 43.74877 13857 ft 316 kts 173°
2026-04-21 12:04 40.26187 43.75334 13128 ft 312 kts 174°
2026-04-21 12:04 40.24069 43.75765 12393 ft 305 kts 174°
2026-04-21 12:04 40.21985 43.76176 11788 ft 297 kts 174°
2026-04-21 12:05 40.20000 43.76565 11663 ft 282 kts 175°
2026-04-21 12:05 40.18043 43.77131 11566 ft 299 kts 159°
2026-04-21 12:05 40.16372 43.78800 11388 ft 311 kts 128°
2026-04-21 12:05 40.15559 43.81351 11065 ft 300 kts 97°
2026-04-21 12:06 40.15438 43.83982 10694 ft 281 kts 91°
2026-04-21 12:06 40.15372 43.86435 10324 ft 266 kts 92°
2026-04-21 12:06 40.15303 43.88795 9974 ft 254 kts 92°
2026-04-21 12:06 40.15227 43.91046 9654 ft 244 kts 92°
2026-04-21 12:07 40.15144 43.93247 9322 ft 241 kts 92°
2026-04-21 12:07 40.15055 43.95430 9010 ft 240 kts 93°
2026-04-21 12:07 40.14950 43.97607 8692 ft 240 kts 96°
2026-04-21 12:07 40.14754 43.99768 8380 ft 239 kts 95°
2026-04-21 12:08 40.14638 44.01907 8064 ft 233 kts 92°
2026-04-21 12:08 40.14602 44.03998 7744 ft 226 kts 90°
2026-04-21 12:08 40.14597 44.06030 7445 ft 222 kts 89°
2026-04-21 12:08 40.14600 44.08030 7158 ft 220 kts 90°
2026-04-21 12:09 40.14615 44.10032 6880 ft 220 kts 90°
2026-04-21 12:09 40.14616 44.12019 6603 ft 215 kts 90°
2026-04-21 12:09 40.14615 44.13939 6301 ft 208 kts 90°
2026-04-21 12:09 40.14621 44.15791 6019 ft 200 kts 90°
2026-04-21 12:10 40.14628 44.17588 5766 ft 198 kts 90°
2026-04-21 12:10 40.14634 44.19391 5517 ft 201 kts 90°
2026-04-21 12:10 40.14641 44.21235 5240 ft 203 kts 90°
2026-04-21 12:10 40.14649 44.23048 4976 ft 195 kts 90°
2026-04-21 12:11 40.14657 44.24755 4700 ft 180 kts 90°
2026-04-21 12:11 40.14672 44.26332 4342 ft 170 kts 89°
2026-04-21 12:11 40.14681 44.27842 4186 ft 160 kts 90°
2026-04-21 12:11 40.14679 44.29313 4008 ft 165 kts 90°
2026-04-21 12:12 40.14684 44.30811 3842 ft 166 kts 89°
2026-04-21 12:12 40.14694 44.32350 3561 ft 171 kts 90°
2026-04-21 12:12 40.14693 44.33864 3331 ft 169 kts 91°
2026-04-21 12:12 40.14710 44.35376 3139 ft 164 kts 90°
2026-04-21 12:13 40.14720 44.36854 2932 ft 161 kts 90°
2026-04-21 12:13 40.14729 44.38293 2825 ft 145 kts 91°
2026-04-21 12:13 40.14736 44.39409 2813 ft 110 kts 91°
2026-04-21 12:13 40.14753 44.40013 2822 ft 29 kts 45°
2026-04-21 12:14 40.14832 44.40025 2820 ft 0 kts
2026-04-21 12:15 40.14901 44.40026 2822 ft 17 kts
2026-04-21 12:15 40.15021 44.40001 2820 ft 17 kts 355°
2026-04-21 12:16 40.15092 44.40001 2821 ft 2 kts
2026-04-21 12:16 40.15097 44.40002 2820 ft 0 kts